Temp
10 14 17 17 18 17 17 17 18 18 18 19 19 19 19 19 20 20 24 21 21 22 22 23 27 29 29 30 31 31 29 30 32 33 32 36 33 34 34 32 32 33 33 34 34
10 15 18 18 18 18 18 18 18 18 18 19 19 20 20 20 19 25 21 21 22 22 22 27 29 30 29 30 31 30 30 31 33 32 31 32 32 32 32 31 31 32 33 34 34
10 16 18 18 18 18 18 18 18 18 19 18 19 19 20 20 24 25 22 22 22 22 22 27 28 29 29 31 31 31 29 31 32 32 31 30 30 31 31 30 31 32 32 33 33
14 17 18 18 18 18 18 18 18 19 19 18 19 20 20 20 26 24 22 22 23 23 23 29 30 29 30 30 32 29 30 30 31 31 30 29 30 30 30 30 32 32 32 32 32
17 18 19 18 18 18 18 19 19 19 19 19 18 19 19 24 27 23 23 23 23 25 28 28 29 28 28 30 29 29 30 30 30 30 30 30 29 29 30 31 32 32 32 31 31
18 19 19 19 19 19 19 19 19 19 20 20 19 18 19 25 26 26 25 26 27 27 28 28 27 28 27 28 28 29 29 29 29 29 30 29 29 30 30 31 31 31 31 31 31
19 19 19 19 19 19 19 19 20 20 20 21 20 18 23 27 27 27 26 27 27 27 27 27 27 27 27 27 29 28 27 28 29 30 30 30 28 29 31 31 31 30 30 30 30
18 20 20 20 20 19 20 20 20 21 21 21 21 18 26 27 27 27 28 28 28 27 27 27 26 27 27 28 28 28 28 28 31 31 30 29 27 30 31 31 29 30 30 30 30
18 19 20 20 20 20 20 20 21 21 22 21 21 22 28 27 28 28 27 28 27 27 28 27 27 27 28 27 28 30 28 29 29 31 30 30 28 30 31 30 30 30 30 30 30
18 18 20 21 21 21 20 21 20 21 22 20 23 26 29 28 28 27 28 27 27 28 28 28 28 28 29 29 27 26 26 27 27 28 29 28 28 30 30 30 30 30 30 30 30
19 19 20 21 21 21 21 20 23 23 22 27 28 28 29 28 27 29 28 28 28 28 27 29 27 27 28 27 27 26 26 26 27 29 28 28 28 28 29 30 30 30 30 30 30
18 19 20 21 21 22 21 26 26 26 25 29 29 28 28 27 27 29 28 28 27 26 28 28 28 29 28 27 26 26 26 26 28 29 28 27 27 28 29 29 30 30 30 30 30
18 19 20 21 21 21 23 26 26 26 25 28 29 29 29 28 28 28 28 28 27 26 28 26 28 28 27 27 26 27 26 26 25 26 27 26 27 28 31 31 30 30 30 30 29
18 19 20 21 20 26 27 26 26 25 24 27 28 29 29 29 27 29 28 27 26 26 27 27 29 27 27 26 27 25 27 26 25 25 23 27 24 27 29 30 30 30 30 29 29
19 19 20 20 19 26 26 26 25 25 23 29 29 29 29 28 29 28 28 27 25 26 26 26 27 27 26 26 26 25 26 25 26 26 26 26 26 28 28 25 29 29 29 29 29
19 19 21 21 20 24 26 25 25 24 24 29 29 28 28 29 29 29 28 29 28 27 27 27 29 28 26 26 26 26 26 26 27 27 25 26 22 27 28 26 28 29 29 29 29
19 18 19 20 26 25 25 26 24 24 30 29 28 28 28 27 27 27 27 26 26 25 25 26 28 28 27 25 26 26 25 23 24 24 25 27 24 26 26 29 28 28 28 28 29
19 20 20 21 24 25 25 25 23 28 29 29 27 27 26 28 26 26 26 26 28 26 24 24 24 27 27 26 25 25 24 22 19 21 23 25 25 27 25 27 28 28 28 28 28
18 22 22 23 24 24 25 24 25 27 27 25 25 26 27 28 26 27 26 26 27 27 23 23 24 27 26 27 25 25 23 25 22 23 23 24 27 29 23 21 25 27 27 27 26
13 20 25 24 24 23 24 23 26 27 26 25 24 25 25 26 26 26 26 27 26 26 25 23 21 24 25 27 26 25 26 23 23 19 21 24 24 26 25 25 26 24 24 25 25
15 24 24 24 25 24 23 26 28 27 25 23 24 24 24 24 25 25 25 26 27 26 25 23 22 22 24 24 25 26 25 24 23 21 20 20 22 26 25 25 24 25 25 24 24
19 24 25 24 24 26 25 26 20 25 25 24 23 23 23 23 23 23 24 25 25 24 22 23 21 20 22 24 26 25 25 24 20 21 21 21 21 26 25 25 25 24 25 24 24
18 22 26 25 23 24 26 25 25 25 24 24 23 24 23 22 21 22 23 25 25 23 21 21 20 19 20 23 26 24 24 24 23 21 19 19 21 25 25 25 26 25 24 23 23
19 22 26 25 26 23 23 22 24 26 24 23 23 23 22 21 22 22 22 24 24 23 20 19 19 18 18 19 22 21 23 24 23 19 21 22 23 24 25 26 25 24 23 23 22
19 22 22 21 22 21 21 22 22 22 24 24 22 22 22 21 21 21 22 22 23 23 21 20 18 19 20 20 21 22 22 23 22 23 21 23 23 25 26 25 24 24 22 21 21
19 18 19 19 19 20 20 21 22 23 23 22 21 22 22 20 20 20 20 20 19 21 20 21 19 19 19 20 20 20 21 21 22 23 24 24 24 26 25 24 24 22 21 20 20
16 16 17 17 19 19 21 22 22 22 22 22 21 20 20 20 21 20 20 19 19 18 18 18 18 16 15 17 17 17 19 21 23 24 23 22 23 24 23 24 23 22 22 21 20
Height
803 801 800 800 799 798 796 795 793 791 790 788 785 784 782 779 777 776 773 776 773 770 767 764 758 755 754 749 746 744 765 762 743 734 733 704 721 718 720 732 730 728 728 721 720
804 802 801 801 800 798 797 795 794 792 790 789 787 784 782 780 777 773 778 775 773 770 766 759 752 752 751 747 745 752 757 746 728 732 735 725 727 729 734 735 736 731 725 724 723
805 803 802 802 801 799 798 796 795 793 791 789 787 785 782 780 776 774 777 775 772 769 767 760 756 752 751 739 743 743 755 738 732 732 734 736 737 732 737 741 733 732 726 724 725
807 805 804 803 801 800 798 797 795 793 791 790 788 785 782 782 780 776 777 774 771 768 765 756 750 751 750 749 735 754 744 740 733 734 738 742 736 739 735 733 725 723 723 725 727
809 807 806 804 802 801 799 797 795 794 792 790 788 786 785 778 771 776 776 773 769 765 762 758 755 757 757 746 746 749 743 736 734 737 738 736 739 737 733 725 722 721 721 724 726
811 809 807 805 803 801 799 797 795 793 792 791 789 787 787 780 773 773 773 770 768 766 762 760 761 759 760 752 755 744 743 742 740 738 735 738 736 731 726 718 718 720 722 721 722
812 809 807 806 804 801 799 796 794 793 792 791 790 789 784 775 772 771 770 768 768 768 766 764 763 763 758 758 742 745 753 742 732 728 731 730 742 736 715 713 717 719 718 719 720
813 810 807 805 804 801 798 795 794 793 792 791 789 790 777 771 770 768 766 765 764 764 765 765 764 761 757 749 749 748 744 747 720 721 722 730 747 724 711 714 721 720 718 717 717
814 810 807 805 803 800 797 795 794 792 791 790 789 786 770 768 767 766 766 764 765 763 761 760 761 759 752 754 751 728 748 740 731 715 721 725 735 721 710 713 715 715 715 715 714
815 810 807 805 802 799 797 795 793 792 791 789 787 784 767 768 766 767 763 764 764 762 758 752 754 755 745 747 765 763 760 752 751 735 727 729 727 715 709 707 707 706 706 706 706
815 810 807 804 802 798 796 794 793 792 789 776 770 768 762 767 766 761 762 761 757 757 762 747 760 760 747 750 755 759 760 757 742 727 727 725 724 718 709 705 703 702 702 703 703
815 810 806 803 801 798 795 788 786 786 782 764 766 768 766 767 766 757 761 762 761 767 753 752 754 741 746 752 756 754 755 748 732 722 728 727 726 714 703 698 695 695 696 698 698
814 809 804 802 798 795 791 788 786 784 783 762 761 762 760 763 761 761 759 760 763 765 754 763 752 741 751 752 753 748 749 747 747 736 730 728 722 705 684 679 683 686 686 690 695
812 807 802 800 800 789 784 787 784 784 790 769 765 760 759 755 762 755 758 763 764 764 757 757 740 749 751 753 745 756 740 744 746 748 754 726 740 714 690 681 678 677 682 688 691
810 804 801 800 796 788 788 787 786 785 809 760 757 756 756 759 754 754 756 759 767 762 763 760 752 750 754 750 748 757 744 743 737 734 732 726 729 700 688 707 686 681 681 683 686
808 802 799 798 795 790 787 787 787 797 798 760 751 759 759 752 751 749 752 748 748 754 752 747 730 733 746 745 747 739 738 733 725 716 732 716 742 707 691 704 687 680 678 681 683
805 800 798 797 789 789 788 785 797 795 751 759 762 757 759 762 755 754 758 761 763 768 764 748 736 730 738 752 740 739 749 760 749 739 732 712 731 712 694 682 683 682 681 681 681
803 798 796 795 791 790 788 790 805 759 756 751 760 761 766 753 759 758 760 761 741 751 765 769 764 736 733 744 749 746 752 764 783 766 745 725 725 696 693 690 681 682 682 680 683
800 795 793 790 791 790 789 796 782 765 763 771 769 766 754 749 755 753 755 752 744 746 771 769 761 733 738 732 741 744 757 738 756 748 745 725 699 678 698 707 703 689 686 684 685
803 795 784 786 788 790 791 791 769 758 765 770 783 768 770 759 762 758 755 744 748 746 751 762 771 750 742 731 734 738 730 752 749 773 757 726 722 706 700 700 697 700 699 691 690
806 789 782 784 785 786 790 770 756 755 768 779 775 773 771 770 763 762 758 749 741 747 750 758 765 758 744 742 737 729 734 735 742 752 760 752 727 692 694 695 698 695 691 692 692
808 796 781 782 786 771 773 764 773 766 765 773 773 773 774 769 769 767 763 751 745 753 766 761 765 765 751 731 722 723 728 730 755 753 743 743 712 694 696 694 692 691 687 688 692
813 792 776 779 788 775 763 765 764 764 768 769 771 766 767 772 778 765 760 750 748 755 766 764 767 773 758 737 705 725 728 723 730 741 747 748 713 694 692 687 679 680 683 688 688
815 794 775 773 769 780 779 779 772 758 764 768 771 767 771 773 765 766 759 749 746 749 756 765 773 777 774 758 743 740 729 720 723 740 725 713 699 690 685 677 676 679 681 685 685
813 796 791 796 784 783 785 781 778 774 759 759 770 769 768 770 768 768 758 752 746 742 751 756 763 759 749 745 738 730 725 718 720 713 723 695 693 678 672 671 673 676 681 685 686
818 814 805 803 795 789 782 778 773 766 764 768 770 766 765 771 769 767 763 763 761 750 749 748 752 750 743 738 736 733 722 721 713 699 688 683 677 663 665 668 672 679 683 684 684
825 823 819 804 795 790 779 769 766 763 765 765 766 767 769 765 759 758 758 757 757 758 755 756 755 760 750 748 746 738 724 708 694 683 684 688 677 671 673 670 672 675 675 676 677
Wind_Speed
13 9 6 6 7 8 8 7 7 7 5 5 6 6 7 8 9 6 9 6 8 9 14 16 12 4 9 12 5 12 9 12 17 13 18 6 5 2 5 5 14 14 16 18 23
14 8 6 6 6 7 8 8 7 6 5 6 6 9 12 12 15 9 3 6 6 7 15 9 9 6 7 6 4 6 9 16 11 10 14 17 12 8 9 10 11 15 14 16 20
14 7 6 5 5 6 8 8 7 6 5 7 8 9 12 12 11 8 4 5 4 6 16 15 8 10 12 11 8 10 12 15 18 10 12 15 15 14 14 16 15 14 12 11 13
16 8 6 5 6 7 8 8 8 7 7 8 10 9 10 7 2 6 5 4 7 12 16 9 10 9 12 11 8 8 14 15 14 10 13 14 15 17 17 17 17 17 15 12 10
17 10 6 5 6 8 9 10 10 8 7 8 11 12 7 7 8 5 4 8 11 15 6 10 10 9 11 13 11 14 15 14 11 13 13 16 17 18 20 18 17 17 15 12 12
17 12 8 7 8 9 11 11 10 8 7 8 11 13 5 7 2 2 5 10 7 10 10 7 9 11 9 11 12 15 16 16 17 17 17 15 15 15 18 16 15 11 12 13 12
18 13 10 8 9 11 12 10 8 7 7 7 10 10 12 8 3 5 7 6 5 8 9 11 11 10 14 15 12 14 17 17 20 16 11 9 16 18 22 15 5 9 13 12 11
24 14 11 10 11 13 12 6 4 5 7 9 12 6 7 1 6 9 5 11 9 6 7 9 10 11 10 11 17 19 15 14 1 8 12 15 16 14 12 2 7 12 12 11 11
30 17 11 11 12 13 10 4 3 6 8 9 10 9 6 5 5 8 8 6 13 12 11 11 12 13 12 13 14 15 10 16 17 17 17 13 17 17 17 15 13 12 14 16 15
30 22 13 10 11 13 11 6 8 9 10 10 16 13 6 7 8 6 7 7 7 10 14 16 14 12 14 12 11 15 18 17 19 18 19 20 22 19 19 20 19 18 16 15 16
30 26 14 10 9 14 15 8 5 6 11 14 6 6 3 8 5 6 7 7 12 10 15 9 9 12 8 10 12 14 16 19 19 19 20 19 18 19 19 19 20 18 15 13 14
32 30 17 12 11 13 17 7 10 11 11 13 9 6 7 2 8 4 6 10 10 12 13 13 11 8 10 11 13 16 19 19 19 17 18 20 22 22 22 20 18 16 14 14 13
34 32 19 13 13 14 13 7 11 11 7 12 9 8 2 3 9 10 5 9 13 11 12 12 16 7 11 14 15 16 14 16 19 21 19 22 24 23 16 4 11 11 10 9 10
35 33 18 12 10 13 5 11 12 4 5 11 9 5 6 7 9 3 4 7 10 12 11 8 7 9 14 14 13 12 16 19 20 18 16 19 17 21 22 15 17 13 9 8 11
37 30 13 8 13 10 9 10 10 3 4 8 8 5 5 9 7 4 6 7 12 14 8 16 16 15 12 11 13 16 15 17 23 21 21 22 12 19 6 10 3 4 3 1 5
38 22 10 6 11 11 10 9 6 5 4 4 4 5 9 9 13 5 9 11 15 16 14 18 15 12 6 10 14 16 17 21 23 20 15 16 2 15 10 15 14 6 5 6 9
38 15 10 9 9 11 10 8 6 6 5 3 4 10 12 15 8 11 8 10 11 11 12 17 17 8 3 9 13 16 15 11 8 10 7 8 9 12 18 19 5 4 6 8 13
37 12 4 10 10 7 8 8 11 13 6 14 10 16 17 9 7 6 12 13 13 6 10 12 11 4 5 14 20 15 9 6 7 13 19 22 14 9 10 13 11 7 9 5 8
36 9 7 11 6 5 6 7 14 7 9 9 14 14 12 4 10 11 13 12 10 5 7 11 8 20 18 11 5 5 11 7 10 16 16 17 19 11 19 13 15 11 10 8 11
26 12 16 8 3 6 8 15 19 1 4 7 11 9 14 12 14 13 13 12 3 3 4 11 17 18 19 12 14 17 16 11 7 6 14 13 22 17 6 17 12 12 10 14 8
7 6 7 2 5 7 10 16 6 9 3 5 11 15 17 17 16 17 12 17 9 4 7 13 14 18 19 18 19 14 9 13 5 8 12 16 10 14 23 18 8 10 10 11 13
9 6 5 5 7 8 14 2 1 10 10 8 9 13 13 15 15 16 16 10 7 6 10 15 10 16 18 21 23 21 18 13 4 12 11 13 23 20 8 15 13 13 14 14 13
7 8 9 3 7 10 14 14 16 17 8 7 10 10 14 15 12 9 12 11 12 8 5 9 5 11 14 13 5 3 12 11 10 10 19 16 17 17 25 24 17 15 11 11 13
5 5 8 4 7 8 12 15 16 7 8 10 13 14 14 16 16 14 17 16 14 12 10 4 12 17 15 18 20 26 23 24 19 9 20 21 30 21 23 20 13 14 11 13 12
5 7 7 7 12 16 16 16 19 19 14 6 9 12 15 15 15 19 20 22 18 16 11 11 19 23 27 27 27 28 29 27 25 24 23 29 28 25 18 16 11 11 12 13 12
8 8 10 13 18 18 14 15 18 19 14 12 15 18 17 19 20 20 20 19 21 20 20 15 18 21 27 23 25 28 30 29 31 31 28 27 25 17 13 13 13 7 11 13 14
18 17 8 8 15 15 15 18 18 14 14 11 14 17 19 19 19 20 19 19 20 22 22 19 17 15 20 15 20 20 22 25 25 23 16 18 21 19 19 14 12 13 12 14 14
Wind_Direction
3 6 35 36 34 25 19 15 12 15 16 5 350 333 311 305 304 276 34 355 335 316 307 295 270 276 271 258 237 274 263 261 262 319 331 58 42 71 6 309 302 305 300 294 316
6 8 37 39 33 20 15 7 2 358 351 344 328 302 289 295 298 60 12 349 326 315 320 336 330 322 263 238 244 236 271 266 16 342 322 331 347 330 296 285 271 274 274 265 279
9 22 42 36 28 16 7 1 350 340 331 329 330 311 282 295 273 70 22 349 336 292 291 288 272 267 280 262 270 241 269 304 314 340 323 316 309 298 287 270 260 274 280 296 326
24 29 39 30 14 3 355 347 339 326 318 325 331 327 312 298 9 72 36 16 336 301 288 310 316 297 273 284 292 278 284 290 305 311 305 293 294 284 281 281 287 284 287 283 282
26 28 22 8 353 344 339 333 326 315 309 318 324 328 326 239 57 124 332 294 289 293 341 342 326 343 303 333 318 285 279 283 311 292 282 277 273 279 277 275 274 272 265 266 271
18 18 12 353 339 335 331 323 312 299 297 313 318 324 275 264 50 171 282 283 334 349 333 355 347 336 290 297 300 290 297 302 290 281 275 281 280 279 277 271 258 253 261 266 258
11 6 1 351 340 335 331 322 301 281 287 303 310 329 288 36 280 278 264 315 309 323 323 349 333 314 318 299 317 311 293 285 265 247 255 291 280 269 271 253 281 298 278 255 255
10 1 351 345 342 339 340 334 292 266 278 293 300 301 290 145 341 249 290 295 239 270 287 295 336 282 266 279 283 260 251 274 13 155 233 219 279 292 285 331 258 254 251 254 266
8 357 344 338 339 341 339 318 260 249 261 274 290 218 287 178 254 330 291 304 319 293 285 269 266 276 271 269 268 292 247 307 316 330 315 282 272 272 270 278 252 240 244 260 262
5 357 342 330 334 329 337 293 271 274 271 258 261 277 242 347 338 300 267 294 272 293 277 235 247 258 255 257 316 330 313 312 305 303 297 289 281 286 284 274 263 271 269 259 257
359 354 336 320 320 319 322 293 224 213 229 268 296 279 334 339 234 259 353 293 261 254 274 326 289 273 338 338 319 304 287 291 290 283 279 283 291 291 289 279 269 269 267 262 265
357 350 334 316 296 296 305 304 7 305 305 260 254 271 251 296 285 233 349 308 324 294 304 281 278 15 2 317 290 283 283 283 298 317 321 307 292 282 268 257 259 269 272 269 266
355 347 332 310 302 275 253 359 320 320 277 274 213 278 230 276 280 298 327 315 306 299 306 312 288 340 306 298 293 287 300 302 319 312 296 283 274 275 276 263 209 236 261 258 262
352 345 329 302 300 305 281 341 327 351 275 177 209 216 262 250 260 269 297 320 295 297 327 286 304 310 295 300 299 309 324 317 303 300 296 304 295 289 272 255 204 228 205 257 294
350 342 327 292 305 308 351 335 326 244 265 159 125 104 255 253 318 175 199 268 285 304 296 286 306 286 306 301 340 301 300 286 283 278 281 279 269 278 73 292 55 54 37 300 275
347 339 314 265 255 258 324 329 280 236 233 162 161 236 278 299 300 256 264 237 261 270 273 262 273 271 291 321 290 275 293 310 288 274 252 266 232 292 343 354 299 286 273 255 256
344 334 275 282 287 327 316 278 254 250 125 94 342 321 306 299 290 282 300 290 286 291 293 323 285 122 224 283 291 314 319 316 314 311 289 359 272 277 287 292 308 301 314 297 305
340 315 245 248 295 310 295 265 258 275 357 10 338 316 288 282 305 275 280 292 288 224 285 288 311 8 16 309 303 301 293 303 316 309 305 305 289 305 28 20 345 4 320 275 295
340 329 249 232 295 283 274 256 249 348 4 341 318 292 291 200 209 283 294 286 294 353 295 318 273 326 317 322 341 300 295 308 281 286 287 282 284 347 55 23 299 1 346 326 2
332 300 260 175 255 266 261 260 285 27 327 305 292 291 288 305 312 303 304 300 308 272 278 289 293 294 302 281 242 241 257 289 271 288 297 304 307 295 29 346 333 358 349 349 359
302 286 117 231 256 253 252 258 306 25 20 301 287 298 302 303 302 295 290 298 316 305 325 308 291 288 293 274 276 293 247 248 250 257 287 299 275 319 329 324 336 318 330 316 322
313 290 109 324 273 249 253 18 218 304 307 250 263 279 285 295 293 294 288 283 52 359 305 297 297 283 279 286 276 265 269 276 273 272 266 273 279 286 333 314 287 280 277 314 300
302 286 266 257 284 313 335 334 321 289 257 282 286 276 296 291 290 269 288 310 316 297 294 338 283 311 305 296 233 272 284 263 284 288 263 269 270 298 301 285 276 277 322 303 306
285 303 327 300 262 275 315 314 301 327 254 267 286 282 287 274 266 265 278 270 296 261 176 162 253 264 270 272 293 291 278 282 281 261 277 260 279 279 272 286 335 328 324 296 307
252 303 344 298 305 325 306 294 290 288 289 246 260 263 281 284 288 290 289 295 285 266 210 224 256 263 265 269 270 277 286 287 290 287 279 285 279 285 302 312 323 331 328 305 305
302 343 330 300 288 283 283 277 278 285 289 299 303 303 308 296 291 293 297 290 287 297 296 287 273 272 268 274 277 279 281 286 277 272 270 275 278 294 324 332 293 338 334 330 317
338 329 307 284 289 286 279 280 289 305 301 288 301 300 293 289 301 301 298 290 280 277 272 272 277 288 272 280 290 279 274 274 276 289 292 298 296 316 308 303 336 323 311 300 310